"Pseudo-MPEC" for P11kQVx

Created 2021 Sep 16 11:07:18 UT using Find_Orb

Click here for an explanation of pseudo-MPECs

 
 Astrometry: 
     P11kQVx  C2021 09 10RJNRMrwUnv7HM=PP`to!WvCI21Q)7[?hSkeb9aTahqk?2@][u:W=F51
     P11kQVx  C2021 09 10iOnL+`a1YO?K;[V5EaKsE!.Aoe_3.i[ZtAA`Uq%f`xBv$A7*_dO:F51
     P11kQVx  C2021 09 10rp0]0wES2%MAstrometryTFgcqli]-gZ]F!t*a^Y!V*emn8GO=N]F51
     P11kQVx |C2021 09 13=FibiLo0,,V.redacted;:It$tXjAL`YM5P!rHq7Z-=)J6N2pi55807
     P11kQVx |C2021 09 13=9cO]_UD(3I],KUJbiX%LP)b$o3G^HdRe9iJngCP!F4-qi1Y2C8^807
     P11kQVx |C2021 09 13sv!RE4y*6d6!W%LmIVHoj/f3@yEk*7A_CgsCK/a;d@DDgm!5ED\Y807
     P11kQVx |C2021 09 15?[$]'bNHGriton]V/HNPFsq:Na0s_mR$(1;/sj2u!o1pSgYU;cUh807
     P11kQVx |C2021 09 15[oBj'Mv`U-!e[EwVaR%r29\AUEwwFn^^SZxcBSN#y%3:Wlg4Yp5;807
     P11kQVx |C2021 09 15Q3vR'RX?6fS4OuBWRA\?5mf'E]wyrmQ_i)@A;92'mVBB3O=IHSq4807
     P11kQVx  C2021 09 15/xYlPY?CdXfmSablMj9N\phehk3AbH*a'wclickk:ph$NTK[hereF51
     P11kQVx  C2021 09 15o4NCXgK2#Ah/FV*for.$5I_f:6($6P`N)voT.sOc;9/qw=u2A5R[F51
     P11kQVx  C2021 09 155h9aexplanationTCanaiw]^+F15cMNrD%it80/DFxgd7Nr55gv$F51

Station data:
(807) Cerro Tololo Observatory, La Serena  (S30.169136 W70.805900)  Chile.
(F51) Pan-STARRS 1, Haleakala  (N20.707235 W156.255910)  US/Hawaii.
   Observers N. Primak, A. Schultz, S. Watters, J. Thiel, T. Goggia. Measurer
   PS1 Science Consortium. 1.8-m Ritchey-Chrétien + CCD.

Orbital elements:  P11kQVx
   Perihelion 2022 Mar 9.142744 +/- 0.723843 TT =  3:25:33 (JD 2459647.642744)
Epoch 2021 Sep 15.0 TT = JDT 2459472.5   Earth MOID: 0.4727   AutoNEOCP
M 307.78254791 +/- 0.6960355        (J2000 ecliptic)
n   0.29814225 +/- 0.0036361        Peri.   67.35004 +/- 0.2889923
a   2.21915190 +/- 0.0180419        Node    19.60663 +/- 0.2169944
e   0.4078550 +/- 0.00596545        Incl.   24.05953 +/- 0.2194317
P   3.31                   H 20.1   G  0.15   U  9.0  
q 1.31405949 +/- 0.00271583    Q 3.12424431 +/- 0.0384087
From 12 observations 2021 Sept. 10-15; mean residual 0".20
Residuals in arcseconds: 
210910 F51  .07+  .02-    210913 807  .06-  .02+    210915 807  .09+  .08+    
210910 F51  .06+  .01+    210913 807  .22-  .24+    210915 F51  .15-  .18+    
210910 F51  .11-  .00     210915 807  .50+  .58-    210915 F51  .13-  .22+    
210913 807  .10+  .10-    210915 807  .09+  .24-    210915 F51  .22-  .15+    

Ephemerides (geocentric):
Date (UTC) HH   RA              Dec         delta   r     elong  mag " sig PA
---- -- -- --  -------------   -----------  ------ ------ -----  --- ---- ---
2021 09 16 11  23 53 49.500   -27 26 33.91  1.0174 1.9739 154.8 22.4 .491   5
2021 09 16 12  23 53 44.964   -27 26 28.41  1.0172 1.9737 154.8 22.4 .509   5
2021 09 16 13  23 53 40.427   -27 26 22.86  1.0170 1.9735 154.8 22.4 .527   5
2021 09 16 14  23 53 35.887   -27 26 17.27  1.0168 1.9733 154.8 22.4 .545   5
2021 09 16 15  23 53 31.345   -27 26 11.62  1.0167 1.9731 154.8 22.4 .564   5
2021 09 16 16  23 53 26.802   -27 26 05.93  1.0165 1.9728 154.8 22.4 .583   6
2021 09 16 17  23 53 22.256   -27 26 00.19  1.0163 1.9726 154.7 22.4 .602   6
2021 09 16 18  23 53 17.709   -27 25 54.40  1.0161 1.9724 154.7 22.4 .622   6
2021 09 16 19  23 53 13.159   -27 25 48.56  1.0159 1.9722 154.7 22.4 .641   6
2021 09 16 20  23 53 08.608   -27 25 42.67  1.0157 1.9720 154.7 22.4 .661   6
2021 09 16 21  23 53 04.055   -27 25 36.73  1.0156 1.9718 154.7 22.4 .681   6
2021 09 16 22  23 52 59.499   -27 25 30.74  1.0154 1.9716 154.7 22.4 .702   6
2021 09 16 23  23 52 54.942   -27 25 24.70  1.0152 1.9714 154.7 22.4 .722   6
2021 09 17 00  23 52 50.383   -27 25 18.62  1.0150 1.9711 154.7 22.4 .743   6
2021 09 17 01  23 52 45.823   -27 25 12.48  1.0148 1.9709 154.7 22.4 .764   6
2021 09 17 02  23 52 41.260   -27 25 06.30  1.0147 1.9707 154.7 22.4 .785   6
2021 09 17 03  23 52 36.695   -27 25 00.06  1.0145 1.9705 154.7 22.4 .807   6
2021 09 17 04  23 52 32.129   -27 24 53.78  1.0143 1.9703 154.7 22.4 .828   7
2021 09 17 05  23 52 27.561   -27 24 47.44  1.0141 1.9701 154.7 22.4 .850   7
2021 09 17 06  23 52 22.991   -27 24 41.06  1.0140 1.9699 154.7 22.4 .872   7
2021 09 17 07  23 52 18.419   -27 24 34.63  1.0138 1.9697 154.6 22.4 .895   7
2021 09 17 08  23 52 13.845   -27 24 28.14  1.0136 1.9694 154.6 22.4 .917   7
2021 09 17 09  23 52 09.270   -27 24 21.61  1.0134 1.9692 154.6 22.4 .940   7
2021 09 17 10  23 52 04.693   -27 24 15.03  1.0132 1.9690 154.6 22.4 .963   7
2021 09 17 11  23 52 00.114   -27 24 08.40  1.0131 1.9688 154.6 22.4 .986   7
2021 09 17 12  23 51 55.533   -27 24 01.72  1.0129 1.9686 154.6 22.4 1.01   7
2021 09 17 13  23 51 50.950   -27 23 54.98  1.0127 1.9684 154.6 22.4 1.03   7
2021 09 17 14  23 51 46.366   -27 23 48.20  1.0125 1.9682 154.6 22.4 1.06   7
2021 09 17 15  23 51 41.780   -27 23 41.37  1.0124 1.9680 154.6 22.4 1.08   7
2021 09 17 16  23 51 37.192   -27 23 34.49  1.0122 1.9677 154.6 22.4 1.11   7
2021 09 17 17  23 51 32.603   -27 23 27.56  1.0120 1.9675 154.6 22.4 1.13   8
2021 09 17 18  23 51 28.012   -27 23 20.58  1.0119 1.9673 154.6 22.4 1.16   8
2021 09 17 19  23 51 23.419   -27 23 13.55  1.0117 1.9671 154.6 22.4 1.18   8
2021 09 17 20  23 51 18.825   -27 23 06.46  1.0115 1.9669 154.5 22.4 1.21   8
2021 09 17 21  23 51 14.229   -27 22 59.33  1.0113 1.9667 154.5 22.4 1.23   8
2021 09 17 22  23 51 09.631   -27 22 52.15  1.0112 1.9665 154.5 22.4 1.26   8
2021 09 17 23  23 51 05.031   -27 22 44.92  1.0110 1.9663 154.5 22.4 1.28   8
2021 09 18 00  23 51 00.430   -27 22 37.63  1.0108 1.9660 154.5 22.4 1.31   8
2021 09 18 01  23 50 55.828   -27 22 30.30  1.0107 1.9658 154.5 22.4 1.34   8
2021 09 18 02  23 50 51.223   -27 22 22.92  1.0105 1.9656 154.5 22.4 1.36   8
2021 09 18 03  23 50 46.617   -27 22 15.48  1.0103 1.9654 154.5 22.4 1.39   8
2021 09 18 04  23 50 42.010   -27 22 08.00  1.0102 1.9652 154.5 22.4 1.42   8
2021 09 18 05  23 50 37.401   -27 22 00.46  1.0100 1.9650 154.5 22.4 1.45   8
2021 09 18 06  23 50 32.790   -27 21 52.88  1.0098 1.9648 154.4 22.4 1.47   9
2021 09 18 07  23 50 28.178   -27 21 45.24  1.0097 1.9646 154.4 22.4 1.50   9
2021 09 18 08  23 50 23.564   -27 21 37.55  1.0095 1.9643 154.4 22.4 1.53   9
2021 09 18 09  23 50 18.949   -27 21 29.81  1.0093 1.9641 154.4 22.4 1.56   9
2021 09 18 10  23 50 14.332   -27 21 22.02  1.0092 1.9639 154.4 22.4 1.59   9